Location: Niagara
(43.2500°N, 79.0670°W)
Time: 01:53:39
(UTC-04:00)

Vanguard 2 Rocket - Visible Passes

Search period start: 18 October 2017 00:00
Search period end: 28 October 2017 00:00
Orbit: 555 x 3327 km, 32.9° (Epoch: 16 October)

Date Brightness Start Highest point End Pass type
(mag) Time Alt. Az. Time Alt. Az. Time Alt. Az.
18 Oct 10.6 20:12:42 10° WSW 20:23:18 24° SSW 20:36:52 10° SSE visible
19 Oct 10.4 19:12:21 10° W 19:22:37 29° SSW 19:36:59 10° SSE visible
19 Oct 11.1 21:34:24 10° SW 21:38:01 11° SW 21:41:51 10° SSW visible
20 Oct 11.0 20:29:38 10° WSW 20:37:25 16° SW 20:46:41 10° S visible
21 Oct 10.7 19:28:14 10° WSW 19:36:52 21° SSW 19:48:08 10° S visible
23 Oct 11.1 19:46:17 10° SW 19:51:10 13° SSW 19:56:47 10° SSW visible
24 Oct 10.9 18:44:26 10° WSW 18:50:50 16° SSW 18:59:00 10° S visible
